Find Starlink 3879

NORAD ID: 52473 Int'l Des: 2022-049 Owner: SPXS Country: US Constellation: starlink operational
LEOCIRCULAR

現在のビュー

3D地球を読み込み中...

About Starlink 3879

Starlink 3879 (NORAD 52473) is a starlink constellation satellite (v1.5) launched May 6, 2022 by SPXS of US. It operates in LEO, CIRCULAR orbit with a mass of 297.00 kg.

次回通過

Passes for default location (London). Set your location on the main map for personalized predictions.

高度履歴

Loading altitude history...

軌道要素

1 52473U 22049Y 26253.28400751 .00000880 00000-0 38103-4 0 9998
2 52473 53.1635 301.7159 0001123 84.3962 275.7168 15.33543916240238
Epoch: Sep 10, 2026 • Age: 9 hours

現在のステータス

高度 478.2 km
遠地点 / 近地点 N/A
速度 7.63 km/s
衛星直下点 -38.04°S, 34.83°E
打ち上げ日 May 6, 2022
運用期間 4.3 years
タイプ internet

技術仕様

分類 Payload
質量 297.00 kg
乾燥質量 220.00 kg
総質量 297.00 kg
長さ 0.20 m
直径 2.80 m
スパン 9.00 m
形状 Box + pan
製造者 SPXS
バスタイプ Starlink
フェーズステータス In Orbit
所有者/国 SPXS/US

Most Searched